User: anonymous   Login
Location: Caltech
(34.1382°N, 118.1253°W)
Time: 23:43:04
(UTC-07:00)
Language:

Cosmos 1975 - Orbit

View from above orbital plane
View from above orbital plane
View from above satellite
View from above satellite

Ground track
Ground track

The orbit data is extracted from the following two-line orbital elements,

1 19573U 88093A   16272.01079938  .00000952  00000-0  66928-4 0  9999
2 19573  82.5198 239.0672 0016117 109.5612 250.7357 15.03857358520404
Epoch (UTC): 28 September 2016 00:15:33
Eccentricity: 0.0016117
inclination: 82.5198°
perigee height: 544 km
apogee height: 566 km
right ascension of ascending node: 239.0672°
argument of perigee: 109.5612°
revolutions per day: 15.03857358
mean anomaly at epoch: 250.7357°
orbit number at epoch: 52040

The dashed part of the orbit path shows where the satellite is in the earth's shadow,  

DLR